Regional Weather Roundup
Issued by NWS Grand Forks, ND

Home | Current Version | Previous Version | Text Only | Print | Product List | Glossary Off
Versions: 1 2 3 4 5 6 7 8 9 10 11 12 13 14 15 16 17 18 19 20 21 22 23 24 25 26 27 28 29 30 31 32 33 34 35 36 37 38 39 40 41 42 43 44 45 46 47 48 49 50

000
ASUS43 KFGF 211731
RWRFGF
PRAIRIE TO PINES  WEATHER ROUNDUP
NATIONAL WEATHER SERVICE EASTERN NORTH DAKOTA/GRAND FORKS ND
1100 AM CST WED FEB 21 2018

 **SATELLITE DATA USED TO AUGMENT SKY COVER AT AUTOMATED STATIONS**
 *****  WEATHER ACROSS EASTERN NORTH DAKOTA  *****

CITY           SKY/WX    TMP DP  RH WIND       PRES   REMARKS
GRAND FORKS    FAIR       4  -5  66 SW8       30.46R WCI  -9
GRAND FRKS AFB SUNNY      9  -6  52 W7        30.48R WCI  -3
GRAND FRKS NWS   N/A      4  -4  70 SW10      30.44R WCI -12
DEVILS LAKE    FAIR      -1  -9  68 SW15      30.38R WCI -21
FARGO          FAIR       2  -6  69 S10       30.52R WCI -14
WAHPETON ARPT  FAIR       3  -8  60 S3        30.56R
$$

 ***** WEATHER ACROSS CENTRAL AND WESTERN NORTH DAKOTA  *****

CITY           SKY/WX    TMP DP  RH WIND       PRES   REMARKS
BISMARCK       FAIR       5  -8  55 SW9       30.43R WCI  -9
MINOT          FAIR       4  -6  63 W22       30.33R WCI -18
JAMESTOWN      FAIR       6  -5  60 S9        30.41R WCI  -8
MINOT AFB      FAIR       3  -7  64 W16       30.33R WCI -16
GARRISON         N/A      2  -9  60 W10       30.35R WCI -14
WILLISTON      FAIR      -2 -11  65 SW6       30.33F WCI -14
DICKINSON      FAIR       5  -7  57 SW10      30.28S WCI -10
HETTINGER      FLURRIES   2 -10  57 CALM      30.33R
$$

 *****  OTHER AIRPORT OBSERVATIONS IN OUR AREA  *****

CITY           SKY/WX    TMP DP  RH WIND       PRES   REMARKS
WALHALLA       FAIR       7  -4  61 SW8       30.39R WCI  -6
GRAFTON AIRPOR FAIR       5  -4  66 SW14      30.45R WCI -12
VALLEY CITY AR FAIR       3  -8  60 SW8       30.46R WCI -10
CANDO          FAIR       3  -8  60 SW13      30.38R WCI -14
CAVALIER APRT    N/A      7  -6  56 SW8       30.40R WCI  -6
GWINNER          N/A      0  -8  71 SW14      30.51R WCI -19
SHEYENNE NWR     N/A      3  -8  58 SW8       29.95  WCI -10
ROLLA          FAIR      -2  -9  71 S8        30.29R WCI -17
 ***** THE ABOVE OBSERVATIONS ARE NON NWS ARE NOT QUALITY
       CONTROLLED AND MAY MIS-REPORT RAIN FOR SNOW...
$$

  *****  WEATHER ACROSS NORTHERN MINNESOTA  *****

CITY           SKY/WX    TMP DP  RH WIND       PRES   REMARKS
FLAG ISLAND    FAIR       9   0  66 SE6       30.36R WCI  -1
WARROAD        FAIR       7  -2  66 SW9       30.40R WCI  -7
ROSEAU         FAIR       3  -2  78 SW12      30.41R WCI -13
HALLOCK        FAIR       3  -4  72 S8        30.43R WCI -10
THF RVR FALLS  FLURRIES   1  -8  66 SW13      30.44R WCI -17
BAUDETTE       FAIR       7  -2  66 W5        30.37R WCI  -2
WASKISH        FAIR       7  -2  66 W12       30.43R WCI  -9
CROOKSTON      FAIR       3  -6  66 SW15      30.49R WCI -15
STEPHEN NDAWN    N/A      3  -6  66 S9          N/A  WCI -11
GREENBUSH NDAW   N/A      5  -4  66 SW8         N/A  WCI  -8
$$
  *****  WEATHER ACROSS CENTRAL AND WEST MINNESOTA  *****

CITY           SKY/WX    TMP DP  RH WIND       PRES   REMARKS
FOSSTON        LGT SNOW   1  -8  66 S13       30.46R WCI -16
BEMIDJI        FAIR      11  -2  56 SW7       30.42R WCI   0
PARK RAPIDS    FAIR       6   0  76 CALM      30.45R
ELBOW LAKE     FAIR       4  -4  69 S8        30.54S HAZE    WCI  -9
WADENA         FAIR       7  -6  56 SW5       30.49R WCI  -2
DETROIT LAKES  FAIR       5  -4  66 SW8       30.49R WCI  -8
MOORHEAD       FAIR       0  -9  65 S8        30.53R WCI -15
FERGUS FALLS   FAIR       1  -6  71 S5        30.54F WCI  -8
MORRIS MN      FAIR      10   0  61 SW7       30.55R WCI   0
STAPLES        FAIR      10  -4  52 SW7       30.51R WCI   0
$$
  *****  WEATHER ELSEWHERE ACROSS MINNESOTA  *****

CITY           SKY/WX    TMP DP  RH WIND       PRES   REMARKS
DULUTH         FAIR      13   0  56 W12       30.45R WCI  -1
INTRNTL FALLS  FAIR       7  -1  70 SW8       30.40R WCI  -6
ELY            FAIR      10   1  67 W8        30.40R WCI  -1
CLOQUET        FAIR      12   0  57 S9        30.49R WCI   0
WHEATON        FAIR       7  -6  56 S6        30.58R WCI  -3
BRAINERD       FAIR      10  -4  53 SW10      30.50R WCI  -4
HIBBING        FAIR       7  -3  64 W10       30.43R WCI  -8
ALEXANDRIA     FAIR       5  -4  66 SW6       30.51R WCI  -6
SAINT CLOUD    FAIR       8   0  69 S12       30.59R WCI  -7
MINNEAPOLIS    FAIR      12   3  67 SW6       30.63R WCI   3
$$

  *****  WEATHER ACROSS SOUTH DAKOTA  *****

CITY           SKY/WX    TMP DP  RH WIND       PRES   REMARKS
SIOUX FALLS    FAIR       7  -2  66 S8        30.61R WCI  -6
BROOKINGS      FAIR       5  -4  66 W6        30.54R WCI  -6
WATERTOWN      FAIR       3  -3  76 SW5       30.50R WCI  -6
HURON          FAIR       5  -4  66 E3        30.56R
SISSETON         N/A     12  -3  51 SW14      30.51R WCI  -3
ABERDEEN       FAIR      -3 -10  72 S9        30.54R WCI -19
MITCHELL       FAIR      10  -3  55 SW8       30.59R WCI  -2
PIERRE         FAIR      -5  -8  87 CALM      30.49R
MOBRIDGE       FAIR      -1 -10  65 SE8       30.42R WCI -15
RAPID CITY     FAIR       0  -4  83 CALM      30.27F
$$

  *****  SOME WEATHER IN NEARBY STATES *****

CITY           SKY/WX    TMP DP  RH WIND       PRES   REMARKS
GLASGOW MT     CLOUDY   -11 -17  75 E14       30.25R WCI -33
GREAT FALLS MT FAIR       5  -4  66 SW16      30.03F WCI -14
CHEYENNE WY    FAIR      19  12  74 S5        30.12F WCI  12
SCOTTSBLUFF NE FAIR       4  -3  73 E9        30.29R WCI -10
OMAHA NE       PTSUNNY   17   8  67 VRB3      30.66F
DES MOINES IA  CLOUDY    18   9  68 N13       30.64F WCI   5
DAVENPORT IA   FAIR      24  15  68 N10       30.61S WCI  14
CHICAGO IL     CLOUDY    30  18  60 N9        30.56R WCI  22
EAU CLAIRE WI  FAIR      11   3  70 W8        30.62R WCI  -1
LA CROSSE WI   FAIR      17   6  62 NW5       30.65R WCI  10
$$

  *****  SOME NATIONAL WEATHER *****

CITY           SKY/WX    TMP DP  RH WIND       PRES   REMARKS
LA GUARDIA NY  FAIR      70  58  65 SW13G21   30.24F
RALEIGH NC     PTSUNNY   72  63  73 W12       30.47S
ATLANTA GA     CLOUDY    71  67  87 S7        30.42F
NEW ORLEANS LA PTSUNNY   81  72  74 S17G25    30.24S
OKLAHOMA CITY  CLOUDY    22  18  85 N15       30.42R WCI   9
ALBUQUERQUE NM FAIR      38  20  48 CALM      30.13S
SALT LAKE CITY PTSUNNY   24   9  52 SE5       30.17R WCI  18
LOS ANGELES CA FAIR      54  26  34 E7        30.14S
BOISE ID       CLOUDY    28   5  37 SE13      30.16S WCI  17
SEATTLE WA     CLOUDY    29  14  53 SE7       30.32S WCI  22
$$

*** WEATHER ACROSS MANITOBA...SASKATCHEWAN AND ONTARIO ***
                ***ONTARIO***

CITY           SKY/WX    TMP DP  RH WIND       PRES   REMARKS
GERALDTON      NOT AVBL
THUNDER BAY    NOT AVBL
SIOUX LOOKOUT  NOT AVBL
TORONTO        NOT AVBL
BIG TROUT LK   NOT AVBL
PICKLE LAKE    NOT AVBL
DRYDEN         NOT AVBL
KENORA         NOT AVBL
$$
                *** MANITOBA***

CITY           SKY/WX    TMP DP  RH WIND       PRES   REMARKS
BRANDON        NOT AVBL
DAUPHIN        NOT AVBL
ISLAND LAKE    NOT AVBL
PILOT MOUND    NOT AVBL
THE PAS        NOT AVBL
THOMPSON       NOT AVBL
WINNIPEG       NOT AVBL
$$
                ***SASKATCHEWAN***

CITY           SKY/WX    TMP DP  RH WIND       PRES   REMARKS
ESTEVAN        NOT AVBL
KINDERSLEY     NOT AVBL
LLOYDMINSTER   NOT AVBL
PRINCE ALBERT  NOT AVBL
REGINA         NOT AVBL
YORKTON        NOT AVBL
N. BATTLEFORD  NOT AVBL
LA RONGE       NOT AVBL
SASKATOON      NOT AVBL
SWIFT CURRENT  NOT AVBL
$$
NOTE: THESE ARE AUTOMATED STATIONS WITH LIMITED QUALITY CONTROL
      "FAIR" INDICATES FEW OR NO CLOUDS BELOW 12,000 FEET WITH NO
      SIGNIFICANT WEATHER AND/OR OBSTRUCTIONS TO VISIBILITY.
      SKY/WX - SKY CONDITION AND SIGNIFICANT WEATHER.
      TMP - AIR TEMPERATURE.    DP   - DEWPOINT TEMPERATURE.
      RH  - RELATIVE HUMIDITY.  PRES - PRESSURE.
      HX  - HEAT INDEX.         WCI  - WIND CHILL INDEX.
$




USA.gov is the U.S. government's official web portal to all federal, state and local government web resources and services.